Location: Santa Cristina
(46.5667°N, 11.7167°E)
Time: 18:20:13
(UTC+00:00)

Cosmos 2369 Rocket - Pass Details

Date: 21 April 2021
Orbit: 828 x 853 km, 71.0° (Epoch: 12 May)

Event Time Altitude Azimuth Distance (km) Brightness Sun altitude
Exits shadow 03:34:26 - 224° (SW) 2,696 4.2 -7.3°
Reaches altitude 10° 03:35:09 10° 225° (SW) 2,430 4.0 -7.2°
Maximum altitude 03:40:35 52° 302° (WNW) 1,025 2.5 -6.4°
Drops below altitude 10° 03:46:05 10° 19° (NNE) 2,456 5.3 -5.5°
Sets 03:48:37 0° 24° (NNE) 3,398 6.2 -5.1°
